Miscellaneous Local Product
Issued by NWS Hastings, NE

Home | Current Version | Previous Version | Graphics & Text | Print | Product List | Glossary On
Versions: 1 2 3 4 5 6 7 8 9 10 11 12 13 14 15 16 17 18 19 20 21 22 23 24 25 26 27 28 29 30 31 32 33 34 35 36 37 38 39 40 41 42 43 44 45 46 47 48 49 50
225
AXUS43 KGID 100202
MISGRI

GID CWA HOURLY WEATHER ROUNDUP
NATIONAL WEATHER SERVICE HASTINGS NE
800 PM CST TUE FEB 09 2016

NOTE: "FAIR" INDICATES FEW OR NO CLOUDS BELOW 12,000 FEET WITH NO
SIGNIFICANT WEATHER AND/OR OBSTRUCTIONS TO VISIBILITY.

...SOUTH CENTRAL NEBRASKA...

CITY           SKY/WX    TMP DP  RH WIND       PRES   REMARKS
GRAND ISLAND   CLOUDY    22  13  68 S6        30.23F WCI  14
HASTINGS       CLOUDY    24  13  62 S7        30.22F WCI  16
ORD            CLOUDY    27  17  66 SE3       30.17F
YORK           CLOUDY    23  16  74 SW7       30.24F WCI  15
AURORA         CLOUDY    22  14  73 SW7       30.23F WCI  13
LEXINGTON      CLOUDY    31  24  73 S6        30.18F WCI  26
HOLDREGE       CLOUDY    28  19  71 S7        30.20F WCI  20
HEBRON         CLOUDY    23  16  73 SW5       30.27F WCI  17

...NEBRASKA PANHANDLE...

CITY           SKY/WX    TMP DP  RH WIND       PRES   REMARKS
CHADRON        CLEAR     40  31  70 W13       30.13F WCI  32
ALLIANCE       CLEAR     34  30  85 W10       30.14S WCI  26
SCOTTSBLUFF    CLEAR     41  29  62 W16       30.19F
SIDNEY         CLEAR     39  30  70 W16       30.19F WCI  30

...WESTERN AND NORTH CENTRAL NEBRASKA...

CITY           SKY/WX    TMP DP  RH WIND       PRES   REMARKS
VALENTINE      CLOUDY    36  27  69 CALM      30.11F
AINSWORTH      CLOUDY    33  25  71 SW3       30.11F
ONEILL         CLOUDY    28  18  67 S5        30.17F WCI  23
BROKEN BOW     CLOUDY    28  22  78 S5        30.16F WCI  23
IMPERIAL       CLOUDY    39  30  70 W10       30.17F WCI  32
NORTH PLATTE   CLOUDY    35  27  72 CALM      30.16F
MCCOOK         CLOUDY    34  26  72 S6        30.19F WCI  29

...EASTERN NEBRASKA...

CITY           SKY/WX    TMP DP  RH WIND       PRES   REMARKS
NORFOLK        CLOUDY    22  13  68 SW5       30.21S WCI  16
SO SIOUX CITY  CLOUDY    23  14  68 NW6       30.24F WCI  16
TEKAMAH        CLOUDY    32  15  49 NW6       30.25F WCI  26
COLUMBUS       CLOUDY    19   7  58 CALM      30.24F
ALBION         CLOUDY    24  16  71 CALM      30.20F
OMAHA EPPLEY   CLOUDY    24  15  68 NW7       30.26S WCI  16
OFFUTT AFB     CLOUDY    23  14  69 W9        30.25F WCI  13
MILLARD        MOCLDY    23  13  65 W3        30.26S
LINCOLN        CLEAR     24  14  65 W6        30.27F WCI  17
NEBRASKA CITY  CLEAR     19  11  72 NW5       30.26S WCI  12
BEATRICE       CLEAR     23  16  73 W7        30.27F WCI  15
FALLS CITY     PTCLDY    20  10  65 NW6       30.27F WCI  12

...NORTHERN KANSAS...

CITY           SKY/WX    TMP DP  RH WIND       PRES   REMARKS
GOODLAND       CLEAR     39  29  67 W12       30.21F WCI  32
HILL CITY      CLOUDY    31  24  75 SE3       30.25S
NORTON         CLOUDY    30  21  69 SE6       30.22F WCI  24
PHILLIPSBURG   CLOUDY    30  21  69 CALM      30.27S
SMITH CENTER   CLOUDY    27  19  74 CALM      30.27F
BELOIT         CLOUDY    27  16  63 CALM      30.30S
HAYS           CLOUDY    32  16  51 SE8       30.26F WCI  25
RUSSELL        CLOUDY    29  20  69 SE8       30.26F WCI  21
CONCORDIA      CLOUDY    26  14  60 SW5       30.29F WCI  20
SALINA         CLOUDY    29  13  51 NW6       30.33S WCI  23
TOPEKA         CLOUDY    25   7  46 NW6       30.30S WCI  18



USA.gov is the U.S. government's official web portal to all federal, state and local government web resources and services.